VE3KSR Weather Reports


Display with metric or nautical units.
time (UTC)temp
F
wind
direction
speed
MPH
gust
MPH
rain 1hr
in
rain 24hr
in
rain mn
in
humidity
%
barometer
mb
20141125000501 37 253 38.0 51.0 0.13 0.00 0.00 93 997.3
20141125000001 37 259 37.0 55.0 0.13 0.00 0.00 92 997.2
20141124235503 37 240 39.0 62.0 0.13 0.00 0.00 92 997.1
20141124235001 37 264 37.0 51.0 0.13 0.00 0.00 93 997.0
20141124234503 37 243 39.0 58.0 0.13 0.00 0.00 92 996.4
20141124234001 37 269 40.0 66.0 0.13 0.00 0.00 92 996.6
20141124233501 37 248 34.0 44.0 0.13 0.00 0.00 92 996.2
20141124233003 37 280 36.0 51.0 0.13 0.00 0.00 92 995.7
20141124232501 37 259 39.0 56.0 0.13 0.00 0.00 92 995.3
20141124232001 37 308 34.0 48.0 0.13 0.00 0.00 92 995.3
20141124231502 38 276 34.0 50.0 0.13 0.00 0.00 92 995.3
20141124231001 38 294 41.0 66.0 0.13 0.00 0.00 92 995.3
20141124230501 38 260 36.0 49.0 0.13 0.00 0.00 92 995.0
20141124230001 38 263 35.0 51.0 0.13 0.00 0.00 92 994.9
20141124225501 38 255 33.0 50.0 0.13 0.00 0.00 92 994.9
20141124225002 38 291 36.0 59.0 0.13 0.00 0.00 92 994.7
20141124224501 38 269 39.0 56.0 0.13 0.00 0.00 92 994.5
20141124224001 38 253 33.0 48.0 0.13 0.00 0.00 92 994.5
20141124223501 38 259 41.0 57.0 0.13 0.00 0.00 92 994.0
20141124223001 39 281 36.0 51.0 0.13 0.00 0.00 92 993.9
20141124222501 38 294 45.0 71.0 0.13 0.00 0.00 92 993.7
20141124222001 39 294 43.0 75.0 0.13 0.00 0.00 92 992.9
20141124221502 39 245 46.0 61.0 0.13 0.00 0.00 93 992.5
20141124221002 39 259 40.0 63.0 0.13 0.00 0.00 93 992.0
20141124220501 40 249 43.0 61.0 0.13 0.00 0.00 93 992.0
20141124220001 40 248 41.0 62.0 0.13 0.00 0.00 78 991.6
20141124215501 40 267 44.0 56.0 0.13 0.00 0.00 93 991.6
20141124215001 41 250 43.0 63.0 0.13 0.00 0.00 93 991.5
20141124214502 41 260 36.0 49.0 0.13 0.00 0.00 93 991.5
20141124214002 41 263 36.0 50.0 0.13 0.00 0.00 93 991.4
20141124213501 42 266 40.0 55.0 0.13 0.00 0.00 93 991.2
20141124213001 42 256 40.0 56.0 0.13 0.00 0.00 92 991.1
20141124212501 42 256 42.0 58.0 0.13 0.00 0.00 92 990.9
20141124212001 43 252 42.0 58.0 0.13 0.00 0.00 92 991.0
20141124211501 44 245 49.0 63.0 0.13 0.00 0.00 91 990.3
20141124211001 44 238 46.0 63.0 0.13 0.00 0.00 89 990.0
20141124210501 45 263 42.0 62.0 0.13 0.00 0.00 87 989.5
20141124210003 46 257 45.0 62.0 0.13 0.00 0.00 87 989.3
20141124205502 46 259 47.0 59.0 0.13 0.00 0.00 87 988.6
20141124205001 47 243 45.0 60.0 0.13 0.00 0.00 87 988.5
20141124204502 48 256 42.0 57.0 0.13 0.00 0.00 87 988.3
20141124204002 49 249 38.0 51.0 0.13 0.00 0.00 86 988.2
20141124203502 49 252 48.0 64.0 0.13 0.00 0.00 84 987.4
20141124203002 50 262 48.0 65.0 0.13 0.00 0.00 90 987.6
20141124202502 50 250 43.0 62.0 0.13 0.00 0.00 92 987.5
20141124202002 50 259 37.0 50.0 0.13 0.00 0.00 93 987.6
20141124201502 50 256 37.0 56.0 0.13 0.00 0.00 93 987.7
20141124201002 50 233 33.0 46.0 0.13 0.00 0.00 93 987.7
20141124200502 50 252 28.0 38.0 0.13 0.00 0.00 94 987.8
20141124195004 50 245 31.0 42.0 0.13 0.00 0.00 94 987.7
20141124194503 49 243 32.0 40.0 0.13 0.00 0.00 94 987.7
20141124194002 49 250 30.0 38.0 0.13 0.00 0.00 95 987.7
20141124193502 49 246 33.0 44.0 0.13 0.00 0.00 95 987.5
20141124193049 49 243 32.0 45.0 0.13 0.00 0.00 95 987.4
20141124193002 49 243 32.0 45.0 0.13 0.00 0.00 95 987.4
20141124192502 49 252 29.0 39.0 0.13 0.00 0.00 95 987.2
20141124192002 49 253 31.0 38.0 0.13 0.00 0.00 95 987.2
20141124191502 49 242 28.0 37.0 0.13 0.00 0.00 95 987.2
20141124191002 49 259 30.0 39.0 0.13 0.00 0.00 95 986.8
20141124190502 49 260 28.0 39.0 0.13 0.00 0.00 95 986.9
20141124190002 49 269 27.0 36.0 0.13 0.00 0.00 95 986.6
20141124185503 49 239 28.0 44.0 0.13 0.00 0.00 95 986.8
20141124185002 49 239 31.0 44.0 0.13 0.00 0.00 95 986.9
20141124184503 49 270 31.0 39.0 0.13 0.00 0.00 95 987.0
20141124184003 49 255 36.0 45.0 0.13 0.00 0.00 95 987.0
20141124183502 49 245 33.0 45.0 0.13 0.00 0.00 95 986.9
20141124183004 49 249 31.0 39.0 0.13 0.00 0.00 96 987.1
20141124182502 49 243 33.0 41.0 0.13 0.00 0.00 96 986.9
20141124182002 49 253 30.0 39.0 0.13 0.00 0.00 96 986.7
20141124181504 49 246 24.0 36.0 0.13 0.00 0.00 96 986.8
20141124181002 49 249 26.0 37.0 0.13 0.00 0.00 95 986.6
20141124180503 49 249 27.0 34.0 0.13 0.00 0.00 94 986.6
20141124180002 49 249 27.0 35.0 0.13 0.00 0.00 94 986.6
20141124175503 49 246 29.0 38.0 0.13 0.00 0.00 92 986.4
20141124175003 49 246 30.0 40.0 0.13 0.00 0.00 91 986.2
20141124174502 50 257 31.0 41.0 0.13 0.00 0.00 92 986.2
20141124174002 50 269 24.0 38.0 0.13 0.00 0.00 91 986.3
20141124173503 50 252 37.0 46.0 0.13 0.00 0.00 91 986.3
20141124173002 50 245 34.0 46.0 0.13 0.00 0.00 94 986.1
20141124172502 50 248 23.0 34.0 0.13 0.00 0.00 96 986.0
20141124172002 50 249 23.0 30.0 0.13 0.00 0.00 96 986.3
20141124171540 50 257 23.0 29.0 0.13 0.00 0.00 96 986.7
20141124171502 50 257 23.0 29.0 0.13 0.00 0.00 96 986.7
20141124171003 50 249 21.0 31.0 0.13 0.00 0.00 92 986.7
20141124170502 50 256 24.0 30.0 0.13 0.00 0.00 92 986.7
20141124170002 50 232 21.0 30.0 0.13 0.00 0.00 94 986.6
20141124165502 49 269 19.0 28.0 0.13 0.00 0.00 95 986.7
20141124165002 49 256 21.0 25.0 0.13 0.00 0.00 94 986.7
20141124164502 49 257 20.0 28.0 0.13 0.00 0.00 95 986.8
20141124164002 49 255 22.0 28.0 0.13 0.00 0.00 96 986.6
20141124163502 49 248 24.0 31.0 0.13 0.00 0.00 96 986.7
20141124163002 49 263 23.0 30.0 0.13 0.00 0.00 91 986.6
20141124162502 49 246 23.0 30.0 0.13 0.00 0.00 92 986.6
20141124162002 49 253 21.0 33.0 0.13 0.00 0.00 94 987.0
20141124161502 49 264 32.0 42.0 0.13 0.00 0.00 95 987.1
20141124161002 50 250 30.0 45.0 0.13 0.00 0.00 94 987.1
20141124160502 51 255 22.0 28.0 0.13 0.00 0.00 95 987.1
20141124160002 51 240 27.0 38.0 0.13 0.00 0.00 89 987.4
20141124155502 51 248 25.0 32.0 0.13 0.00 0.00 92 987.6
20141124155002 51 248 25.0 31.0 0.13 0.00 0.00 92 987.6
20141124154504 51 256 25.0 36.0 0.13 0.00 0.00 93 987.3
20141124154003 50 239 26.0 36.0 0.13 0.00 0.00 94 987.3
20141124153505 50 253 24.0 36.0 0.13 0.00 0.00 92 987.1
20141124153004 50 226 18.0 29.0 0.13 0.00 0.00 93 987.0
20141124152504 50 243 23.0 31.0 0.13 0.00 0.00 93 987.0
20141124152004 50 243 25.0 31.0 0.13 0.00 0.00 92 987.1
20141124151502 50 238 22.0 30.0 0.13 0.00 0.00 94 986.8
20141124151002 50 248 22.0 33.0 0.13 0.00 0.00 92 986.9
20141124150550 50 243 23.0 30.0 0.13 0.00 0.00 91 987.0
20141124150503 50 243 23.0 30.0 0.13 0.00 0.00 91 987.0
20141124150003 50 248 23.0 30.0 0.13 0.00 0.00 93 987.2
20141124145502 50 239 25.0 31.0 0.13 0.00 0.00 93 987.4
20141124145047 50 236 30.0 39.0 0.13 0.00 0.00 88 987.5
20141124145002 50 236 30.0 39.0 0.13 0.00 0.00 88 987.5
20141124144503 50 240 27.0 37.0 0.13 0.00 0.00 92 987.6
20141124144113 50 255 30.0 39.0 0.13 0.00 0.00 89 987.7
20141124144003 50 255 30.0 39.0 0.13 0.00 0.00 89 987.7
20141124143502 50 245 28.0 38.0 0.13 0.00 0.00 92 987.8
20141124143002 50 235 28.0 38.0 0.13 0.00 0.00 93 987.7
20141124142502 50 242 28.0 36.0 0.13 0.00 0.00 95 987.6
20141124142002 50 246 30.0 39.0 0.13 0.00 0.00 95 987.4
20141124141542 51 255 26.0 33.0 0.13 0.00 0.00 97 987.4
20141124141502 51 255 26.0 33.0 0.13 0.00 0.00 97 987.4
20141124141002 51 252 31.0 40.0 0.13 0.00 0.00 97 987.2
20141124140502 50 242 27.0 38.0 0.13 0.00 0.00 97 987.3
20141124140113 50 263 27.0 42.0 0.13 0.00 0.00 97 987.3
20141124140002 50 263 27.0 42.0 0.13 0.00 0.00 97 987.3
20141124135502 50 253 30.0 39.0 0.13 0.00 0.00 97 987.1
20141124135002 50 231 29.0 41.0 0.13 0.00 0.00 97 987.2
20141124134502 50 252 30.0 38.0 0.13 0.00 0.00 97 987.2
20141124134002 50 260 29.0 40.0 0.13 0.00 0.00 97 987.5
20141124133502 50 248 35.0 44.0 0.13 0.00 0.00 97 987.4
20141124133003 50 259 32.0 43.0 0.13 0.00 0.00 97 987.5
20141124132502 50 250 29.0 42.0 0.13 0.00 0.00 98 987.3
20141124132002 50 257 30.0 41.0 0.13 0.00 0.00 98 987.1
20141124131502 50 243 31.0 42.0 0.13 0.00 0.00 98 986.8
20141124131044 50 245 29.0 40.0 0.13 0.00 0.00 98 986.7
20141124131005 50 245 29.0 40.0 0.13 0.00 0.00 98 986.7
20141124130503 50 262 30.0 43.0 0.13 0.00 0.00 97 986.6
20141124130004 50 235 35.0 48.0 0.13 0.00 0.00 97 986.3
20141124125503 50 253 35.0 44.0 0.13 0.00 0.00 97 986.3
20141124125002 50 260 35.0 45.0 0.13 0.00 0.00 97 986.7
20141124124503 50 243 32.0 41.0 0.13 0.00 0.00 97 986.4
20141124124002 50 239 33.0 42.0 0.13 0.00 0.00 95 986.3
20141124123502 50 262 33.0 47.0 0.13 0.00 0.00 95 986.3
20141124123002 50 242 37.0 48.0 0.13 0.00 0.00 94 986.6
20141124122503 50 255 35.0 46.0 0.13 0.00 0.00 93 986.6
20141124122003 50 249 33.0 49.0 0.13 0.00 0.00 91 986.4
20141124121834 50 240 33.0 49.0 0.13 0.00 0.00 94 985.9
20141124121503 50 252 36.0 45.0 0.13 0.00 0.00 91 986.4
20141124121002 50 238 36.0 44.0 0.13 0.00 0.00 93 986.2
20141124120502 50 243 38.0 50.0 0.13 0.00 0.00 91 986.1
20141124120003 50 240 33.0 49.0 0.13 0.00 0.00 94 985.9
20141124115503 50 239 34.0 44.0 0.13 0.00 0.00 94 985.9
20141124115004 50 245 32.0 45.0 0.13 0.00 0.00 93 985.7
20141124114503 50 248 37.0 48.0 0.13 0.00 0.00 94 985.6
20141124114004 50 250 36.0 49.0 0.13 0.00 0.00 91 985.6
20141124113503 50 252 38.0 48.0 0.13 0.00 0.00 93 985.5
20141124113003 50 246 42.0 58.0 0.13 0.00 0.00 93 985.5
20141124112503 50 255 40.0 51.0 0.13 0.00 0.00 95 985.5
20141124112003 50 245 36.0 49.0 0.13 0.00 0.00 94 985.6
20141124111503 50 217 34.0 47.0 0.13 0.00 0.00 97 985.8
20141124111003 49 231 27.0 38.0 0.13 0.00 0.00 97 985.5
20141124110503 49 246 24.0 35.0 0.13 0.00 0.00 98 985.6
20141124110003 49 238 23.0 41.0 0.13 0.00 0.00 96 985.7
20141124105503 49 211 21.0 36.0 0.13 0.00 0.00 96 985.3
20141124105003 48 210 21.0 33.0 0.13 0.00 0.00 98 985.3
20141124104503 48 221 24.0 36.0 0.13 0.00 0.00 98 985.2
20141124104004 48 217 25.0 37.0 0.13 0.00 0.00 98 985.1
20141124103503 48 225 26.0 39.0 0.13 0.00 0.00 97 984.9
20141124103003 48 222 26.0 38.0 0.13 0.00 0.00 97 985.1
20141124102503 48 222 24.0 35.0 0.13 0.00 0.00 98 985.2
20141124102006 48 219 26.0 36.0 0.13 0.00 0.00 97 985.3
20141124101503 48 208 27.0 38.0 0.13 0.00 0.00 97 985.4
20141124101003 47 212 26.0 38.0 0.13 0.00 0.00 97 985.7
20141124100503 47 217 28.0 41.0 0.13 0.00 0.00 99 986.0
20141124100004 47 225 25.0 33.0 0.13 0.00 0.00 98 986.0
20141124095503 47 221 22.0 31.0 0.13 0.00 0.00 97 986.4
20141124095005 47 224 19.0 28.0 0.13 0.00 0.00 97 986.6
20141124094503 46 215 17.0 27.0 0.13 0.00 0.00 97 986.7
20141124094005 46 226 20.0 30.0 0.13 0.00 0.00 97 986.9
20141124093503 46 207 17.0 28.0 0.13 0.00 0.00 98 986.9
20141124093003 46 176 18.0 28.0 0.13 0.00 0.00 98 986.9
20141124092503 45 183 16.0 23.0 0.13 0.00 0.00 99 986.7
20141124092004 45 193 19.0 30.0 0.13 0.00 0.00 98 986.7
20141124091503 45 172 18.0 27.0 0.13 0.00 0.00 98 986.8
20141124091004 45 191 20.0 29.0 0.13 0.00 0.00 99 986.7
20141124090503 45 184 17.0 25.0 0.13 0.00 0.00 99 986.9
20141124090004 45 167 22.0 31.0 0.13 0.00 0.00 98 987.3
20141124085503 45 190 21.0 28.0 0.13 0.00 0.00 98 987.5
20141124085106 45 183 21.0 29.0 0.13 0.00 0.00 98 987.7
20141124085004 45 183 21.0 29.0 0.13 0.00 0.00 98 987.7
20141124084503 45 186 18.0 29.0 0.13 0.00 0.00 98 988.1
20141124084003 45 219 18.0 29.0 0.13 0.00 0.00 98 988.5
20141124083504 45 222 20.0 29.0 0.13 0.00 0.00 97 988.8
20141124083003 45 174 21.0 32.0 0.13 0.00 0.00 97 989.1
20141124082503 45 187 18.0 27.0 0.13 0.00 0.00 97 989.0
20141124082003 45 198 23.0 32.0 0.13 0.00 0.00 96 989.5
20141124081503 44 197 23.0 34.0 0.13 0.00 0.00 99 989.2
20141124081003 44 222 18.0 29.0 0.13 0.00 0.00 96 989.6
20141124080503 44 219 21.0 28.0 0.13 0.00 0.00 97 989.6
20141124080003 44 167 21.0 30.0 0.13 0.00 0.00 97 989.2
20141124075503 44 166 22.0 33.0 0.13 0.00 0.00 97 989.5
20141124075003 44 167 19.0 34.0 0.13 0.00 0.00 97 989.6
20141124074503 44 166 25.0 32.0 0.13 0.00 0.00 98 989.7
20141124074004 44 186 23.0 31.0 0.13 0.00 0.00 97 989.9
20141124073504 43 190 26.0 37.0 0.13 0.00 0.00 98 990.1
20141124073005 44 186 25.0 35.0 0.13 0.00 0.00 98 990.2
20141124072503 44 184 25.0 35.0 0.13 0.00 0.00 97 990.5
20141124072004 43 170 26.0 35.0 0.13 0.00 0.00 97 990.8
20141124071503 43 188 25.0 38.0 0.13 0.00 0.00 98 991.1
20141124071003 43 194 24.0 37.0 0.13 0.00 0.00 99 991.1
20141124070549 43 179 27.0 34.0 0.13 0.00 0.00 98 991.2
20141124070503 43 179 27.0 34.0 0.13 0.00 0.00 98 991.2
20141124070004 43 194 26.0 37.0 0.13 0.00 0.00 98 991.4
20141124065503 43 183 25.0 41.0 0.13 0.00 0.00 98 991.5
20141124065003 43 159 26.0 35.0 0.13 0.00 0.00 99 991.5
20141124064503 42 179 29.0 40.0 0.13 0.00 0.00 99 991.5
20141124064003 42 176 26.0 33.0 0.13 0.00 0.00 97 991.8
20141124063503 43 167 24.0 33.0 0.13 0.00 0.00 98 991.7
20141124063003 43 165 26.0 35.0 0.13 0.00 0.00 98 991.7
20141124062554 43 183 25.0 36.0 0.13 0.00 0.00 97 991.6
20141124062503 43 183 25.0 36.0 0.13 0.00 0.00 97 991.6
20141124062003 43 204 25.0 31.0 0.13 0.00 0.00 98 991.7
20141124061503 43 170 25.0 34.0 0.13 0.00 0.00 98 991.9
20141124061003 43 148 26.0 33.0 0.13 0.00 0.00 97 992.4
20141124060503 43 180 24.0 31.0 0.13 0.00 0.00 98 992.6
20141124060003 42 180 25.0 33.0 0.13 0.00 0.00 97 993.0
20141124055503 42 172 26.0 35.0 0.13 0.00 0.00 98 993.3
20141124055003 42 176 22.0 29.0 0.13 0.00 0.00 98 993.7
20141124054503 42 180 24.0 32.0 0.13 0.00 0.00 98 994.0
20141124054003 42 163 22.0 31.0 0.13 0.00 0.00 98 994.2
20141124053503 42 173 24.0 32.0 0.13 0.00 0.00 96 994.6
20141124053003 42 169 21.0 28.0 0.13 0.00 0.00 97 995.2
20141124052503 41 177 22.0 30.0 0.13 0.00 0.00 97 995.5
20141124052003 41 177 20.0 26.0 0.13 0.00 0.00 97 995.9
20141124051503 42 169 21.0 28.0 0.13 0.00 0.00 97 996.3
20141124051003 41 172 21.0 28.0 0.13 0.00 0.00 96 996.6
20141124050503 42 186 21.0 27.0 0.13 0.00 0.00 96 997.0
20141124050003 42 174 20.0 25.0 0.13 0.00 0.00 95 997.2
20141124045503 42 176 19.0 24.0 0.13 0.00 0.00 94 997.6
20141124045003 42 174 22.0 27.0 0.13 0.00 0.00 94 998.0
20141124044503 42 169 19.0 25.0 0.13 0.00 0.00 94 998.4
20141124044005 42 167 20.0 23.0 0.13 0.00 0.00 93 998.7
20141124043503 42 167 20.0 24.0 0.13 0.00 0.00 92 999.1
20141124043003 42 174 20.0 25.0 0.13 0.00 0.00 90 999.2
20141124042503 43 174 20.0 26.0 0.13 0.00 0.00 88 999.2
20141124042004 43 183 22.0 29.0 0.13 0.00 0.00 87 999.2
20141124041504 43 159 22.0 30.0 0.13 0.00 0.00 88 999.2
20141124041004 43 180 21.0 27.0 0.13 0.00 0.00 86 999.4
20141124040504 43 186 20.0 28.0 0.13 0.00 0.00 85 999.6
20141124040004 43 183 20.0 26.0 0.13 0.00 0.00 87 999.9
20141124035505 44 180 22.0 29.0 0.13 0.00 0.00 81 1000.2
20141124035004 44 191 19.0 23.0 0.13 0.00 0.00 90 1000.4
20141124034504 44 165 18.0 25.0 0.13 0.00 0.00 91 1000.6
20141124034004 44 173 22.0 26.0 0.13 0.00 0.00 91 1000.9
20141124033504 44 177 20.0 28.0 0.13 0.00 0.00 91 1000.9
20141124033004 44 198 20.0 24.0 0.13 0.00 0.00 92 1001.1
20141124032504 44 167 18.0 23.0 0.13 0.00 0.00 92 1001.4
20141124032005 44 135 19.0 25.0 0.13 0.00 0.00 91 1001.6
20141124031504 44 167 19.0 24.0 0.13 0.00 0.00 91 1001.5
20141124031004 44 179 18.0 23.0 0.13 0.00 0.00 91 1001.6
20141124030540 44 172 18.0 24.0 0.13 0.00 0.00 91 1001.4
20141124030504 44 172 18.0 24.0 0.13 0.00 0.00 91 1001.4
20141124030100 44 183 20.0 24.0 0.13 0.00 0.00 91 1001.4
20141124030004 44 183 20.0 24.0 0.13 0.00 0.00 91 1001.4
20141124025504 45 169 19.0 24.0 0.13 0.00 0.00 91 1001.5
20141124025004 45 167 22.0 28.0 0.13 0.00 0.00 91 1001.5
20141124024504 45 163 20.0 25.0 0.13 0.00 0.00 91 1001.7
20141124024004 45 162 21.0 29.0 0.13 0.00 0.00 91 1001.9
20141124023505 44 165 20.0 26.0 0.13 0.00 0.00 91 1002.1
20141124023006 44 173 22.0 26.0 0.13 0.00 0.00 91 1002.3
20141124022505 44 174 19.0 27.0 0.13 0.00 0.00 92 1002.5
20141124022004 44 150 20.0 28.0 0.13 0.00 0.00 92 1002.8
20141124021504 44 174 21.0 32.0 0.13 0.00 0.00 92 1002.9
20141124021004 44 156 20.0 26.0 0.13 0.00 0.00 92 1003.2
20141124020504 44 176 20.0 25.0 0.13 0.00 0.00 93 1003.3
20141124020004 44 163 19.0 23.0 0.13 0.00 0.00 93 1003.2
20141124015504 44 159 18.0 22.0 0.13 0.00 0.00 93 1003.3
20141124015004 44 166 18.0 25.0 0.13 0.00 0.00 93 1003.3
20141124014504 44 173 17.0 22.0 0.13 0.00 0.00 93 1003.1
20141124014004 44 162 18.0 23.0 0.13 0.00 0.00 93 1003.0
20141124013504 44 177 18.0 24.0 0.13 0.00 0.00 93 1003.0
20141124013005 44 174 19.0 23.0 0.13 0.00 0.00 93 1003.1
20141124012504 44 169 18.0 21.0 0.13 0.00 0.00 93 1003.2
20141124012004 44 180 18.0 23.0 0.13 0.00 0.00 94 1003.4
20141124011508 44 146 19.0 24.0 0.13 0.00 0.00 94 1003.7
20141124011007 43 172 17.0 21.0 0.13 0.00 0.00 94 1004.0
20141124010506 43 153 17.0 21.0 0.13 0.00 0.00 94 1004.1
20141124010004 43 163 16.0 22.0 0.13 0.00 0.00 94 1004.5
20141124005505 43 172 18.0 21.0 0.13 0.00 0.00 94 1004.6
20141124005004 43 174 17.0 25.0 0.13 0.00 0.00 95 1005.0
20141124004504 43 153 17.0 21.0 0.13 0.00 0.00 95 1005.2
20141124004004 43 170 17.0 21.0 0.13 0.00 0.00 96 1005.4
20141124003505 42 172 18.0 22.0 0.13 0.00 0.00 96 1005.6
20141124003004 42 183 16.0 20.0 0.13 0.00 0.00 97 1005.6
20141124002508 42 166 15.0 19.0 0.13 0.00 0.00 97 1005.7
20141124002004 42 187 17.0 21.0 0.13 0.00 0.00 97 1005.7
20141124001504 42 179 16.0 18.0 0.13 0.00 0.00 97 1005.6
20141124001004 41 162 16.0 20.0 0.13 0.00 0.00 97 1005.5